FW6665 Weather Reports


time (UTC)temp
C
wind
direction
speed
KPH
gust
KPH
rain 1hr
cm
rain 24hr
cm
rain mn
cm
humidity
%
barometer
mb
20260906044204 13 185 0.0 0.0 0.00 0.00 0.00 78 1021.1
20260906043704 13 185 0.0 0.0 0.00 0.00 0.00 78 1021.0
20260906042704 13 185 0.0 0.0 0.00 0.00 0.00 78 1021.1
20260906041203 13 185 0.0 0.0 0.00 0.00 0.00 78 1021.2
20260906040204 13 185 0.0 0.0 0.00 0.00 0.00 78 1021.2
20260906035704 13 185 0.0 0.0 0.00 0.00 0.00 78 1021.3
20260906035204 13 185 0.0 0.0 0.00 0.00 0.00 78 1021.2
20260906033704 13 185 0.0 0.0 0.00 0.00 0.00 78 1021.2
20260906033204 13 185 0.0 0.0 0.00 0.00 0.00 78 1021.1
20260906032704 13 185 0.0 0.0 0.00 0.00 0.00 78 1021.2
20260906031710 13 185 0.0 0.0 0.00 0.00 0.00 78 1021.3
20260906031204 13 185 0.0 0.0 0.00 0.00 0.00 78 1021.6
20260906030704 13 185 0.0 0.0 0.00 0.00 0.00 78 1021.6
20260906030204 13 185 0.0 0.0 0.00 0.00 0.00 78 1021.6
20260906025704 14 185 0.0 0.0 0.00 0.00 0.00 78 1021.7
20260906024203 14 185 0.0 0.0 0.00 0.00 0.00 77 1021.9
20260906023706 14 185 0.0 0.0 0.00 0.00 0.00 78 1022.1
20260906023204 14 185 0.0 0.0 0.00 0.00 0.00 78 1022.1
20260906022204 14 185 0.0 1.6 0.00 0.00 0.00 78 1022.2
20260906021711 14 185 0.0 1.6 0.00 0.00 0.00 78 1022.2
20260906021204 14 185 0.0 1.6 0.00 0.00 0.00 77 1022.3
20260906020704 14 185 0.0 0.0 0.00 0.00 0.00 77 1022.3
20260906015705 14 185 0.0 0.0 0.00 0.00 0.00 77 1022.3
20260906015205 15 185 0.0 1.6 0.00 0.00 0.00 77 1022.3
20260906014704 15 185 0.0 1.6 0.00 0.00 0.00 77 1022.2
20260906013704 15 185 0.0 1.6 0.00 0.00 0.00 77 1022.4
20260906013205 15 185 0.0 0.0 0.00 0.00 0.00 77 1022.4
20260906012704 15 185 0.0 0.0 0.00 0.00 0.00 76 1022.5
20260906012205 15 185 0.0 0.0 0.00 0.00 0.00 76 1022.5
20260906011704 15 185 0.0 0.0 0.00 0.00 0.00 76 1022.4
20260906011204 15 185 0.0 0.0 0.00 0.00 0.00 76 1022.4
20260906010704 15 185 0.0 0.0 0.00 0.00 0.00 76 1022.4
20260906010204 15 185 0.0 0.0 0.00 0.00 0.00 76 1022.6
20260906005704 15 185 0.0 1.6 0.00 0.00 0.00 75 1022.5
20260906005204 15 185 0.0 1.6 0.00 0.00 0.00 76 1022.5
20260906004704 15 185 0.0 1.6 0.00 0.00 0.00 76 1022.6
20260906004204 15 185 0.0 1.6 0.00 0.00 0.00 76 1022.5
20260906003704 15 185 0.0 1.6 0.00 0.00 0.00 76 1022.6
20260906003205 15 185 0.0 1.6 0.00 0.00 0.00 76 1022.6
20260906002704 15 185 0.0 1.6 0.00 0.00 0.00 76 1022.6
20260906002204 15 185 0.0 1.6 0.00 0.00 0.00 76 1022.7
20260906001204 15 185 0.0 1.6 0.00 0.00 0.00 76 1022.8
20260906000704 15 185 0.0 1.6 0.00 0.00 0.00 76 1022.9
20260905235205 15 185 0.0 0.0 0.00 0.00 0.00 76 1022.6
20260905234204 15 185 0.0 0.0 0.00 0.00 0.00 75 1022.8
20260905233206 15 185 0.0 0.0 0.00 0.00 0.00 75 1022.7
20260905232205 16 185 0.0 1.6 0.00 0.00 0.00 74 1022.7
20260905231204 16 185 0.0 3.2 0.00 0.00 0.00 74 1022.7
20260905230705 16 185 0.0 3.2 0.00 0.00 0.00 74 1022.7
20260905230205 16 185 0.0 1.6 0.00 0.00 0.00 74 1022.7
20260905224703 16 185 0.0 1.6 0.00 0.00 0.00 74 1022.9
20260905224204 16 185 0.0 1.6 0.00 0.00 0.00 74 1022.8
20260905223704 16 185 0.0 1.6 0.00 0.00 0.00 73 1022.8
20260905223204 16 185 0.0 1.6 0.00 0.00 0.00 73 1022.7
20260905222704 16 185 0.0 1.6 0.00 0.00 0.00 73 1022.6
20260905222205 16 185 0.0 4.8 0.00 0.00 0.00 73 1022.6
20260905221205 16 185 0.0 4.8 0.00 0.00 0.00 73 1022.7
20260905220714 16 185 1.6 3.2 0.00 0.00 0.00 73 1022.7
20260905220205 16 183 0.0 3.2 0.00 0.00 0.00 73 1022.8
20260905215205 16 183 0.0 1.6 0.00 0.00 0.00 72 1022.7
20260905214709 16 183 0.0 1.6 0.00 0.00 0.00 72 1022.6
20260905214204 16 183 0.0 0.0 0.00 0.00 0.00 71 1022.5
20260905212704 17 183 0.0 3.2 0.00 0.00 0.00 71 1022.4
20260905212209 17 183 0.0 3.2 0.00 0.00 0.00 71 1022.4
20260905211704 17 183 0.0 1.6 0.00 0.00 0.00 71 1022.5
20260905211233 17 183 0.0 1.6 0.00 0.00 0.00 70 1022.4
20260905210204 17 183 0.0 6.4 0.00 0.00 0.00 70 1022.5
20260905205704 17 183 0.0 6.4 0.00 0.00 0.00 69 1022.5
20260905205205 17 183 1.6 3.2 0.00 0.00 0.00 69 1022.5
20260905204704 17 189 0.0 3.2 0.00 0.00 0.00 69 1022.4
20260905204205 17 189 0.0 3.2 0.00 0.00 0.00 68 1022.3
20260905203704 17 189 0.0 4.8 0.00 0.00 0.00 68 1022.3
20260905203204 17 189 0.0 4.8 0.00 0.00 0.00 68 1022.4
20260905202703 17 189 0.0 3.2 0.00 0.00 0.00 67 1022.4
20260905202204 18 189 0.0 3.2 0.00 0.00 0.00 67 1022.3
20260905201704 18 189 0.0 3.2 0.00 0.00 0.00 67 1022.4
20260905201204 18 189 0.0 3.2 0.00 0.00 0.00 66 1022.4
20260905200704 18 189 0.0 6.4 0.00 0.00 0.00 66 1022.4
20260905200204 18 188 0.0 6.4 0.00 0.00 0.00 66 1022.4
20260905195705 18 188 0.0 6.4 0.00 0.00 0.00 65 1022.5
20260905195204 18 188 1.6 4.8 0.00 0.00 0.00 65 1022.4
20260905194704 18 195 0.0 6.4 0.00 0.00 0.00 64 1022.5
20260905194204 18 162 0.0 6.4 0.00 0.00 0.00 64 1022.4
20260905193205 19 162 0.0 6.4 0.00 0.00 0.00 62 1022.3
20260905192706 19 148 0.0 6.4 0.00 0.00 0.00 62 1022.2
20260905192204 19 147 1.6 6.4 0.00 0.00 0.00 61 1022.1
20260905191704 19 141 1.6 4.8 0.00 0.00 0.00 60 1022.1
20260905191204 20 235 0.0 4.8 0.00 0.00 0.00 59 1022.0
20260905190204 20 238 0.0 1.6 0.00 0.00 0.00 55 1021.9
20260905185705 20 241 0.0 0.0 0.00 0.00 0.00 52 1021.9
20260905185203 20 241 0.0 0.0 0.00 0.00 0.00 50 1021.7
20260905184705 20 241 0.0 1.6 0.00 0.00 0.00 49 1021.7
20260905184204 21 241 0.0 1.6 0.00 0.00 0.00 49 1021.6
20260905183704 21 241 0.0 1.6 0.00 0.00 0.00 48 1021.6
20260905183204 21 241 0.0 1.6 0.00 0.00 0.00 48 1021.7
20260905182704 21 241 0.0 3.2 0.00 0.00 0.00 47 1021.7
20260905182203 21 241 0.0 3.2 0.00 0.00 0.00 47 1021.7
20260905181704 21 241 0.0 4.8 0.00 0.00 0.00 46 1021.7
20260905181204 22 241 1.6 4.8 0.00 0.00 0.00 46 1021.6
20260905180704 22 241 1.6 4.8 0.00 0.00 0.00 45 1021.7
20260905180205 22 241 0.0 4.8 0.00 0.00 0.00 44 1021.7
20260905175704 22 241 1.6 4.8 0.00 0.00 0.00 43 1021.6
20260905174204 23 241 1.6 8.0 0.00 0.00 0.00 43 1021.4
20260905172704 23 241 1.6 4.8 0.00 0.00 0.00 42 1021.4
20260905172205 23 241 1.6 4.8 0.00 0.00 0.00 42 1021.5
20260905171704 23 241 3.2 9.7 0.00 0.00 0.00 42 1021.6
20260905171204 23 240 0.0 9.7 0.00 0.00 0.00 42 1021.6
20260905170704 23 240 1.6 9.7 0.00 0.00 0.00 42 1021.6
20260905165204 23 228 3.2 6.4 0.00 0.00 0.00 42 1021.5
20260905164705 23 189 1.6 6.4 0.00 0.00 0.00 42 1021.6
20260905164204 23 176 1.6 8.0 0.00 0.00 0.00 42 1021.6
20260905163204 23 127 1.6 8.0 0.00 0.00 0.00 43 1021.5
20260905162704 23 231 3.2 9.7 0.00 0.00 0.00 42 1021.6
20260905162204 23 235 4.8 9.7 0.00 0.00 0.00 41 1021.5
20260905161705 23 237 3.2 8.0 0.00 0.00 0.00 42 1021.6
20260905161205 23 179 1.6 8.0 0.00 0.00 0.00 42 1021.5
20260905160705 23 244 0.0 8.0 0.00 0.00 0.00 43 1021.5
20260905160204 23 244 1.6 8.0 0.00 0.00 0.00 42 1021.5
20260905155204 23 231 4.8 6.4 0.00 0.00 0.00 42 1021.6
20260905154704 23 231 1.6 8.0 0.00 0.00 0.00 43 1021.5
20260905153705 23 231 3.2 11.3 0.00 0.00 0.00 43 1021.6
20260905153204 23 241 4.8 11.3 0.00 0.00 0.00 42 1021.6
20260905152704 23 185 3.2 11.3 0.00 0.00 0.00 42 1021.6
20260905152204 23 247 3.2 8.0 0.00 0.00 0.00 43 1021.6
20260905151704 23 245 0.0 9.7 0.00 0.00 0.00 44 1021.6
20260905151205 23 254 3.2 14.5 0.00 0.00 0.00 44 1021.7
20260905150705 23 257 1.6 14.5 0.00 0.00 0.00 43 1021.7
20260905150204 23 231 4.8 14.5 0.00 0.00 0.00 43 1021.9
20260905145704 23 257 3.2 8.0 0.00 0.00 0.00 43 1021.8
20260905145204 23 200 1.6 9.7 0.00 0.00 0.00 44 1021.8
20260905143704 22 243 3.2 14.5 0.00 0.00 0.00 45 1021.8
20260905143204 22 261 3.2 14.5 0.00 0.00 0.00 46 1021.9
20260905142704 22 247 6.4 11.3 0.00 0.00 0.00 46 1021.8
20260905142204 22 217 4.8 9.7 0.00 0.00 0.00 46 1021.7
20260905141704 22 228 4.8 11.3 0.00 0.00 0.00 46 1021.7
20260905140704 22 172 1.6 11.3 0.00 0.00 0.00 47 1021.7
20260905140203 22 243 3.2 11.3 0.00 0.00 0.00 48 1021.7
20260905135706 22 243 3.2 11.3 0.00 0.00 0.00 47 1021.6
20260905135204 22 226 6.4 9.7 0.00 0.00 0.00 47 1021.6
20260905133704 22 159 1.6 6.4 0.00 0.00 0.00 46 1021.6
20260905132704 21 248 3.2 6.4 0.00 0.00 0.00 50 1021.6
20260905132204 21 245 1.6 11.3 0.00 0.00 0.00 50 1021.6
20260905131704 21 244 1.6 11.3 0.00 0.00 0.00 50 1021.7
20260905131205 21 243 1.6 11.3 0.00 0.00 0.00 49 1021.7
20260905130704 21 233 3.2 11.3 0.00 0.00 0.00 49 1021.7
20260905130204 21 248 4.8 8.0 0.00 0.00 0.00 49 1021.7
20260905125704 21 252 4.8 14.5 0.00 0.00 0.00 51 1021.6
20260905125204 21 247 1.6 16.1 0.00 0.00 0.00 51 1021.5
20260905124704 21 247 3.2 16.1 0.00 0.00 0.00 50 1021.6
20260905124206 21 258 3.2 16.1 0.00 0.00 0.00 49 1021.6
20260905123704 21 257 3.2 11.3 0.00 0.00 0.00 50 1021.5
20260905123204 21 250 3.2 9.7 0.00 0.00 0.00 51 1021.5
20260905122215 21 235 3.2 11.3 0.00 0.00 0.00 52 1021.4
20260905121704 21 220 3.2 11.3 0.00 0.00 0.00 52 1021.5
20260905121204 20 240 6.4 14.5 0.00 0.00 0.00 52 1021.6
20260905120705 20 240 6.4 14.5 0.00 0.00 0.00 54 1021.5
20260905114704 20 230 3.2 11.3 0.00 0.00 0.00 55 1021.6
20260905114204 20 237 1.6 14.5 0.00 0.00 0.00 56 1021.6
20260905113705 20 237 4.8 14.5 0.00 0.00 0.00 55 1021.6
20260905112704 20 252 6.4 16.1 0.00 0.00 0.00 54 1021.6
20260905111704 20 244 6.4 9.7 0.00 0.00 0.00 54 1021.5
20260905111204 20 237 3.2 14.5 0.00 0.00 0.00 55 1021.5
20260905110704 20 244 4.8 14.5 0.00 0.00 0.00 56 1021.5
20260905110204 20 243 3.2 14.5 0.00 0.00 0.00 56 1021.6
20260905105704 20 244 6.4 16.1 0.00 0.00 0.00 56 1021.5
20260905105223 20 259 3.2 16.1 0.00 0.00 0.00 57 1021.5
20260905104704 20 189 3.2 16.1 0.00 0.00 0.00 58 1021.4
20260905104204 20 235 8.0 14.5 0.00 0.00 0.00 57 1021.4
20260905103704 19 252 3.2 14.5 0.00 0.00 0.00 57 1021.4
20260905103204 19 241 3.2 16.1 0.00 0.00 0.00 59 1021.4
20260905102704 19 262 3.2 16.1 0.00 0.00 0.00 58 1021.3
20260905102205 19 241 3.2 16.1 0.00 0.00 0.00 60 1021.5
20260905101704 19 204 4.8 14.5 0.00 0.00 0.00 60 1021.3
20260905101204 18 255 3.2 14.5 0.00 0.00 0.00 62 1021.4
20260905100709 18 245 4.8 17.7 0.00 0.00 0.00 62 1021.3
20260905100204 18 237 3.2 17.7 0.00 0.00 0.00 62 1021.3
20260905095704 18 258 4.8 17.7 0.00 0.00 0.00 61 1021.2
20260905095203 18 223 8.0 11.3 0.00 0.00 0.00 63 1021.3
20260905094727 18 254 6.4 11.3 0.00 0.00 0.00 63 1021.2
20260905094204 18 293 4.8 14.5 0.00 0.00 0.00 64 1021.1
20260905093204 18 227 4.8 14.5 0.00 0.00 0.00 67 1021.1
20260905092704 18 251 6.4 17.7 0.00 0.00 0.00 66 1021.1
20260905091704 17 250 3.2 17.7 0.00 0.00 0.00 69 1021.0
20260905090709 17 276 6.4 14.5 0.00 0.00 0.00 69 1020.9
20260905090204 17 230 3.2 14.5 0.00 0.00 0.00 70 1020.8
20260905085705 17 240 6.4 14.5 0.00 0.00 0.00 71 1020.7
20260905084704 17 259 3.2 14.5 0.00 0.00 0.00 72 1020.8
20260905084205 17 238 3.2 14.5 0.00 0.00 0.00 73 1020.9
20260905083704 16 241 6.4 17.7 0.00 0.00 0.00 73 1020.8
20260905083204 16 245 3.2 17.7 0.00 0.00 0.00 74 1020.8
20260905082704 16 248 3.2 17.7 0.00 0.00 0.00 75 1020.7
20260905082204 16 230 6.4 14.5 0.00 0.05 0.00 75 1020.7
20260905081704 16 154 3.2 14.5 0.00 0.05 0.00 76 1020.6
20260905080204 15 238 6.4 14.5 0.00 0.05 0.00 77 1020.6
20260905075705 15 227 4.8 14.5 0.00 0.05 0.00 77 1020.4
20260905075204 15 252 4.8 14.5 0.00 0.05 0.00 78 1020.4
20260905073704 14 234 4.8 17.7 0.00 0.05 0.00 79 1020.3
20260905073204 14 230 1.6 17.7 0.00 0.05 0.00 79 1020.4
20260905072704 14 238 3.2 14.5 0.00 0.05 0.00 78 1020.2
20260905072204 13 243 1.6 17.7 0.00 0.05 0.00 78 1020.2
20260905071705 13 227 6.4 17.7 0.00 0.05 0.00 78 1020.1
20260905070704 13 245 6.4 8.0 0.00 0.05 0.00 77 1020.1
20260905070204 13 169 3.2 16.1 0.00 0.05 0.00 77 1020.0
20260905065204 13 226 1.6 16.1 0.00 0.05 0.00 76 1019.9
20260905064704 13 257 4.8 6.4 0.00 0.05 0.00 75 1019.9
20260905064241 13 224 1.6 6.4 0.00 0.05 0.00 75 1019.8
20260905063705 12 226 1.6 8.0 0.00 0.05 0.00 75 1019.7
20260905062705 12 219 3.2 8.0 0.00 0.05 0.00 75 1019.6
20260905062205 12 196 1.6 11.3 0.00 0.05 0.00 75 1019.5
20260905061204 12 234 1.6 11.3 0.00 0.05 0.00 75 1019.4
20260905060205 12 237 1.6 11.3 0.00 0.05 0.00 75 1019.3
20260905055704 12 192 1.6 11.3 0.00 0.05 0.00 75 1019.3
20260905055234 12 178 1.6 11.3 0.00 0.05 0.00 75 1019.2
20260905054704 12 243 3.2 8.0 0.00 0.05 0.00 75 1019.1
20260905054204 12 244 1.6 8.0 0.00 0.05 0.00 75 1019.0
20260905053704 12 241 0.0 6.4 0.00 0.05 0.00 76 1019.0
20260905053204 12 237 0.0 6.4 0.00 0.05 0.00 76 1019.0
20260905052705 12 237 1.6 6.4 0.00 0.05 0.00 76 1019.0
20260905052205 12 227 0.0 4.8 0.00 0.05 0.00 76 1018.9
20260905051704 12 227 1.6 6.4 0.00 0.05 0.00 76 1018.8
20260905051204 12 224 0.0 6.4 0.00 0.05 0.00 76 1018.8
20260905050704 12 226 1.6 6.4 0.00 0.05 0.00 76 1018.8
20260905050204 12 224 1.6 6.4 0.00 0.05 0.00 76 1018.6
20260905045703 12 220 1.6 6.4 0.00 0.05 0.00 76 1018.7
20260905044705 12 226 1.6 6.4 0.00 0.05 0.00 77 1018.5